[[{"header":{"parameterUnit":"m.s-1","parameterCategory":1,"la1":30.2991,"la2":30.254,"lo1":-89.0895,"lo2":-89.0444,"dy":0.0017,"dx":0.0017,"nx":28,"ny":28,"refTime":"2024-08-22T21:00:00:Z","depth":0,"parameterNumber":2,"parameterNumberName":"U-component_of_WINDS"},"data":[0,0,0,0,0,0,0,0,0,0,0,0,0,0,0,0,0,0,0,0,0,0,0,0,0,0,0,0,0,0,0,0,0,0,0,0,0,0,0,0,0,0,0,0,0,0,0,0,0,0,0,0,0,0,0,0,0,0,-4.7944,-4.7945,0,-4.8069,-4.8071,-4.8072,-4.7964,-4.7959,-4.7955,-4.7951,-4.8082,-4.8089,-4.8097,0,0,0,0,0,0,0,0,0,0,0,0,0,-4.7612,-4.7618,-4.7944,-4.7945,-4.7947,-4.8069,-4.8071,-4.8072,-4.7965,-4.7959,-4.7954,-4.7949,-4.8079,-4.8088,-4.8098,0,0,0,0,0,0,0,0,0,0,0,0,0,-4.7748,-4.762,-4.7943,-4.7908,-4.7906,-4.8069,-4.8071,-4.8073,-4.7966,-4.7959,-4.7952,-4.7946,-4.8076,-4.8088,-4.8099,-4.8304,0,0,-4.8134,-4.8139,0,0,0,0,0,0,0,0,-4.7741,-4.7761,-4.7911,-4.791,-4.7908,-4.7994,-4.8001,-4.8151,-4.7967,-4.7943,-4.795,-4.7943,-4.8058,-4.8071,-4.8109,-4.831,-4.8316,-4.8135,-4.8142,-4.8147,-4.815,0,0,0,0,0,0,0,-4.7731,-4.7755,-4.7993,-4.7914,-4.7912,-4.7886,-4.7898,-4.8029,-4.8037,-4.7945,-4.7937,-4.7953,-4.8056,-4.8098,-4.8111,-4.8318,-4.8135,-4.8145,-4.8152,-4.8157,-4.8692,-4.8699,0,0,0,0,0,0,-4.7725,-4.7748,-4.7989,-4.7997,-4.7806,-4.7897,-4.791,-4.7973,-4.8035,-4.8038,-4.7959,-4.7948,-4.8082,-4.8098,-4.8116,-4.8359,-4.8147,-4.8158,-4.8164,-4.8685,-4.8694,-4.8702,0,0,0,0,0,0,-4.7719,-4.7748,-4.7984,-4.787,-4.7898,-4.791,-4.7981,-4.7979,-4.8021,-4.8046,-4.8047,-4.8001,-4.8077,-4.8099,-4.8258,-4.8362,-4.8163,-4.8173,-4.8676,-4.8688,-4.8698,-4.8848,0,0,0,0,0,0,-4.771,-4.7746,-4.7824,-4.7873,-4.7905,-4.8124,-4.7988,-4.7987,-4.8041,-4.8028,-4.8085,-4.8088,-4.8074,-4.8241,-4.8269,-4.8374,-4.8182,-4.8667,-4.8682,-4.8694,-4.8834,-4.8863,-4.8888,0,0,0,0,0,-4.7698,-4.7863,-4.7829,-4.7859,-4.8003,-4.813,-4.8149,-4.8128,-4.805,-4.8128,-4.8144,-4.8086,-4.8346,-4.8258,-4.8289,-4.8399,-4.866,-4.8677,-4.8693,-4.8822,-4.8857,-4.8887,0,0,0,0,0,0,-4.7827,-4.7868,-4.7831,-4.8016,-4.8071,-4.8112,-4.821,-4.8166,-4.8245,-4.8229,-4.8201,-4.8214,-4.8381,-4.8406,-4.8307,-4.86,-4.8491,-4.8514,-4.8578,-4.8612,-4.8638,-4.8628,-4.8192,0,0,0,0,0,-4.7877,-4.7977,-4.8007,-4.8168,-4.8197,-4.8199,-4.8254,-4.8233,-4.8289,-4.8311,-4.8338,-4.8395,-4.8489,-4.8552,-4.864,-4.8837,-4.8847,-4.8928,-4.8955,-4.8977,-4.8997,-4.9102,-4.9137,-4.8756,-4.8756,-4.8756,0,0,-4.7981,-4.8016,-4.8081,-4.8194,-4.8234,-4.8338,-4.8219,-4.8335,-4.8412,-4.8329,-4.8479,-4.8502,-4.8563,-4.8741,-4.8821,-4.8767,-4.9105,-4.8998,-4.9015,-4.9024,-4.9122,-4.9158,-4.9191,-4.8767,-4.8765,-4.8764,0,0,-4.8224,-4.8261,-4.8397,-4.8439,-4.85,-4.85,-4.8533,-4.8581,-4.8592,-4.8742,-4.8682,-4.8773,-4.8937,-4.8982,-4.9027,-4.9286,-4.9235,-4.9315,-4.9456,-4.9558,-4.9588,-4.9615,-4.9706,-4.9739,-4.9336,-4.9336,-4.9336,0,-4.8345,-4.8499,-4.8473,-4.8593,-4.8644,-4.8573,-4.8711,-4.8753,-4.884,-4.8877,-4.8815,-4.9017,-4.9054,-4.9241,-4.9304,-4.9343,-4.9379,-4.9308,-4.9586,-4.9612,-4.9636,-4.9723,-4.9758,-4.9345,-4.9344,-4.9343,-4.9342,0,-4.8646,-4.8754,-4.8857,-4.8941,-4.9004,-4.9133,-4.9126,-4.9193,-4.9166,-4.9173,-4.9327,-4.9368,-4.9462,-4.9505,-4.9481,-4.9689,-4.9653,-4.959,-4.9479,-4.9682,-4.9763,-4.9796,-4.9358,-4.9355,-4.9352,-4.935,0,0,-4.8973,-4.9041,-4.9079,-4.9116,-4.9177,-4.926,-4.9385,-4.9476,-4.9534,-4.9597,-4.97,-4.9839,-4.978,-4.983,-4.9811,-4.9901,-5.0102,-4.9826,-4.9827,-4.9875,-5.0332,-5.0379,-5.0418,-5.0069,-5.0075,-5.008,-5.0326,0,-4.9217,-4.9433,-4.9413,-4.9618,-4.9717,-4.965,-4.9759,-4.9809,-4.9818,-4.9904,-4.9914,-5.0013,-4.9928,-4.9958,-5.0044,-5.0059,-5.0193,-5.0041,-5.0165,-5.017,-5.0151,-5.046,-5.0511,-5.0741,-5.0358,-5.0363,-5.0367,0,-4.9531,-4.9603,-4.9818,-4.9863,-4.9904,-5.0002,-5.0083,-5.0165,-5.022,-5.0221,-5.0277,-5.0242,-5.0367,-5.0254,-5.0427,-5.0324,-5.0373,-5.0388,-5.0397,-5.0407,-5.028,-5.0478,-5.0814,-5.0848,-5.0417,-5.0413,-5.041,0,-4.9747,-4.9898,-5.0045,-5.0079,-5.0136,-5.0206,-5.0233,-5.0281,-5.0337,-5.0408,-5.0444,-5.053,-5.0577,-5.0644,-5.0632,-5.0551,-5.0808,-5.0694,-5.0812,-5.0812,-5.0868,-5.0865,-5.1216,-5.0903,-5.0902,-5.0901,-5.0901,0,-5.0021,-5.0155,-5.0142,-5.0233,-5.0381,-5.0356,-5.0503,-5.0522,-5.0565,-5.0658,-5.0607,-5.0695,-5.0675,-5.0764,-5.0756,-5.0899,-5.0921,-5.0925,-5.0921,-5.0929,-5.0929,-5.0961,-5.0944,-5.091,-5.0908,-5.0907,-5.0905,0,-5.0286,-5.0284,-5.044,-5.0481,-5.0494,-5.0601,-5.0636,-5.0721,-5.0726,-5.0845,-5.0871,-5.088,-5.0981,-5.0976,-5.1092,-5.1086,-5.1262,-5.1241,-5.1244,-5.1238,-5.1356,-5.1344,-5.1739,-5.1789,-5.1444,-5.1448,-5.145,0,-5.0461,-5.0562,-5.0613,-5.0671,-5.0702,-5.0797,-5.0853,-5.0833,-5.0893,-5.0963,-5.104,-5.1136,-5.1212,-5.1377,-5.1393,-5.1481,-5.146,-5.1592,-5.1473,-5.1477,-5.146,-5.1454,-5.1463,-5.1616,-5.1619,-5.1623,-5.1625,0,-5.077,-5.0763,-5.0846,-5.0928,-5.0996,-5.1061,-5.1119,-5.117,-5.1155,-5.1226,-5.1328,-5.1387,-5.1503,-5.1599,-5.1683,-5.1711,-5.1666,-5.1663,-5.1694,-5.1703,-5.17,-5.1701,-5.1306,-5.1654,-5.1651,-5.1649,-5.1647,-5.1646,-5.0994,-5.108,-5.1129,-5.1223,-5.1264,-5.132,-5.1402,-5.1417,-5.1501,-5.1594,-5.1577,-5.1691,-5.1742,-5.185,-5.1886,-5.1975,-5.1928,-5.1974,-5.1985,-5.1997,-5.2009,-5.1687,-5.199,-5.1989,-5.1989,-5.1988,-5.1987,0,-5.1299,-5.1327,-5.1414,-5.1496,-5.157,-5.152,-5.1582,-5.1647,-5.1748,-5.1799,-5.1874,-5.1991,-5.2084,-5.2108,-5.2197,-5.2263,-5.2245,-5.2287,-5.2282,-5.2288,-5.2047,-5.201,-5.2301,-5.2301,-5.23,-5.23,-5.23,-5.23,-5.1467,-5.1609,-5.1609,-5.1771,-5.1798,-5.1909,-5.1948,-5.1999,-5.204,-5.2172,-5.2248,-5.2263,-5.2303,-5.2394,-5.2477,-5.2482,-5.2516,-5.2567,-5.2563,-5.2337,-5.2306,-5.2276,-5.2241,-5.2575,-5.2575,-5.2797,-5.2799,-5.2801]},{"header":{"parameterUnit":"m.s-1","parameterCategory":1,"la1":30.2991,"la2":30.254,"lo1":-89.0895,"lo2":-89.0444,"dy":0.0017,"dx":0.0017,"nx":28,"ny":28,"refTime":"2024-08-22T21:00:00:Z","depth":0,"parameterNumber":3,"parameterNumberName":"V-component_of_WINDS"},"data":[0,0,0,0,0,0,0,0,0,0,0,0,0,0,0,0,0,0,0,0,0,0,0,0,0,0,0,0,0,0,0,0,0,0,0,0,0,0,0,0,0,0,0,0,0,0,0,0,0,0,0,0,0,0,0,0,0,0,-2.4765,-2.4765,0,-2.4806,-2.4807,-2.4807,-2.4813,-2.4812,-2.4812,-2.4812,-2.4856,-2.4857,-2.4859,0,0,0,0,0,0,0,0,0,0,0,0,0,-2.469,-2.4692,-2.4765,-2.4765,-2.4766,-2.4806,-2.4807,-2.4807,-2.4813,-2.4812,-2.4812,-2.4812,-2.4855,-2.4857,-2.4859,0,0,0,0,0,0,0,0,0,0,0,0,0,-2.4726,-2.4692,-2.4765,-2.4773,-2.4774,-2.4806,-2.4807,-2.4808,-2.4813,-2.4812,-2.4812,-2.4811,-2.4855,-2.4857,-2.4859,-2.4886,0,0,-2.4866,-2.4867,0,0,0,0,0,0,0,0,-2.4724,-2.4729,-2.4771,-2.4773,-2.4774,-2.4804,-2.4797,-2.4834,-2.4813,-2.4798,-2.4812,-2.4811,-2.4839,-2.4843,-2.4852,-2.4888,-2.489,-2.4867,-2.4868,-2.4869,-2.487,0,0,0,0,0,0,0,-2.4722,-2.4727,-2.4781,-2.4772,-2.4774,-2.4775,-2.478,-2.4804,-2.4822,-2.48,-2.48,-2.4805,-2.484,-2.485,-2.4853,-2.489,-2.4867,-2.4869,-2.487,-2.4871,-2.4948,-2.4949,0,0,0,0,0,0,-2.4718,-2.4725,-2.478,-2.4782,-2.4747,-2.4777,-2.4782,-2.4795,-2.4821,-2.4825,-2.4805,-2.4805,-2.4846,-2.485,-2.4855,-2.4886,-2.4869,-2.4871,-2.4873,-2.4948,-2.4948,-2.4949,0,0,0,0,0,0,-2.4716,-2.4722,-2.4778,-2.4754,-2.4761,-2.4779,-2.4793,-2.4796,-2.4806,-2.4826,-2.4829,-2.4812,-2.4846,-2.4851,-2.4877,-2.4887,-2.4872,-2.4874,-2.4947,-2.4948,-2.4949,-2.4949,0,0,0,0,0,0,-2.4714,-2.4722,-2.4732,-2.4754,-2.4762,-2.48,-2.4794,-2.4797,-2.481,-2.481,-2.4833,-2.4836,-2.4846,-2.4874,-2.488,-2.489,-2.4876,-2.4946,-2.4947,-2.4948,-2.4948,-2.495,-2.4952,0,0,0,0,0,-2.4711,-2.4731,-2.4732,-2.4739,-2.4775,-2.4801,-2.4805,-2.4815,-2.481,-2.4821,-2.4833,-2.4836,-2.4886,-2.4877,-2.4883,-2.4895,-2.4945,-2.4947,-2.4948,-2.4948,-2.495,-2.4952,0,0,0,0,0,0,-2.4711,-2.4734,-2.4736,-2.4764,-2.478,-2.4802,-2.4815,-2.4818,-2.4836,-2.4835,-2.4847,-2.4853,-2.4878,-2.4889,-2.4879,-2.4921,-2.4915,-2.4918,-2.4912,-2.4914,-2.4916,-2.4912,-2.4878,0,0,0,0,0,-2.4713,-2.4732,-2.4752,-2.4774,-2.4782,-2.4797,-2.4808,-2.4814,-2.4832,-2.4839,-2.4854,-2.4871,-2.4891,-2.4903,-2.4923,-2.495,-2.4955,-2.4961,-2.4963,-2.4964,-2.4966,-2.4981,-2.4983,-2.4954,-2.4954,-2.4954,0,0,-2.472,-2.4735,-2.4746,-2.4774,-2.4788,-2.4806,-2.4803,-2.4823,-2.4837,-2.4843,-2.4867,-2.4879,-2.4899,-2.4926,-2.4938,-2.4936,-2.4976,-2.4966,-2.4967,-2.4968,-2.4982,-2.4985,-2.4988,-2.4955,-2.4955,-2.4955,0,0,-2.4741,-2.4755,-2.4774,-2.4787,-2.4807,-2.4817,-2.4821,-2.4842,-2.485,-2.4875,-2.4879,-2.4896,-2.493,-2.4943,-2.4955,-2.498,-2.4982,-2.4986,-2.4994,-2.5008,-2.501,-2.5012,-2.502,-2.5022,-2.4988,-2.4988,-2.4988,0,-2.4747,-2.4774,-2.4784,-2.4803,-2.4815,-2.482,-2.484,-2.4852,-2.4878,-2.4886,-2.4883,-2.4924,-2.4939,-2.4968,-2.4973,-2.4983,-2.4988,-2.4983,-2.5009,-2.5011,-2.5013,-2.502,-2.5023,-2.4988,-2.4988,-2.4988,-2.4988,0,-2.4779,-2.4799,-2.4812,-2.4835,-2.4848,-2.4868,-2.488,-2.4893,-2.4898,-2.4908,-2.4933,-2.495,-2.4972,-2.4979,-2.4985,-2.5009,-2.5007,-2.5006,-2.5,-2.5016,-2.5023,-2.5026,-2.4989,-2.4988,-2.4988,-2.4988,0,0,-2.4801,-2.4829,-2.4833,-2.4843,-2.4865,-2.488,-2.4899,-2.492,-2.493,-2.4947,-2.4963,-2.4991,-2.499,-2.5003,-2.501,-2.5023,-2.504,-2.502,-2.5021,-2.5022,-2.5066,-2.5066,-2.5069,-2.5042,-2.5042,-2.5043,-2.5064,0,-2.4824,-2.4857,-2.4866,-2.4895,-2.4912,-2.4917,-2.4934,-2.4949,-2.4959,-2.4975,-2.4986,-2.5005,-2.5003,-2.501,-2.5023,-2.5035,-2.5048,-2.5034,-2.5056,-2.5057,-2.505,-2.5073,-2.5072,-2.5092,-2.5067,-2.5068,-2.5068,0,-2.4855,-2.4871,-2.4901,-2.4919,-2.4927,-2.4941,-2.496,-2.4976,-2.4993,-2.4999,-2.5013,-2.5019,-2.5039,-2.5033,-2.506,-2.505,-2.506,-2.5068,-2.5069,-2.507,-2.5063,-2.5074,-2.5098,-2.5101,-2.5073,-2.5072,-2.5072,0,-2.4865,-2.4895,-2.4917,-2.4925,-2.4947,-2.4957,-2.4967,-2.4984,-2.4995,-2.5012,-2.502,-2.5039,-2.505,-2.5065,-2.5075,-2.507,-2.5102,-2.5097,-2.5107,-2.5107,-2.5113,-2.5112,-2.5138,-2.5121,-2.5121,-2.5121,-2.5121,0,-2.4889,-2.4907,-2.4922,-2.4935,-2.4955,-2.4965,-2.4984,-2.4995,-2.5009,-2.5024,-2.503,-2.5045,-2.5058,-2.5074,-2.5083,-2.5104,-2.5109,-2.5115,-2.5117,-2.5114,-2.5113,-2.512,-2.5118,-2.5122,-2.5122,-2.5122,-2.5122,0,-2.4904,-2.4915,-2.4938,-2.4957,-2.4962,-2.4976,-2.4992,-2.5005,-2.5014,-2.5033,-2.5039,-2.5054,-2.5073,-2.5085,-2.511,-2.5116,-2.5139,-2.5141,-2.5132,-2.5133,-2.5142,-2.5141,-2.5173,-2.5177,-2.5158,-2.5158,-2.5158,0,-2.4918,-2.4932,-2.4951,-2.4961,-2.497,-2.4987,-2.4998,-2.5009,-2.502,-2.504,-2.5051,-2.507,-2.5086,-2.5116,-2.513,-2.5149,-2.5151,-2.5161,-2.5154,-2.515,-2.515,-2.5148,-2.5149,-2.5161,-2.5161,-2.5162,-2.5162,0,-2.4941,-2.4945,-2.496,-2.4977,-2.499,-2.5005,-2.5019,-2.5027,-2.504,-2.5053,-2.5072,-2.5084,-2.5109,-2.5127,-2.5147,-2.5158,-2.5162,-2.5164,-2.5167,-2.5163,-2.5157,-2.516,-2.5134,-2.5163,-2.5163,-2.5163,-2.5163,-2.5163,-2.4955,-2.4966,-2.4981,-2.4998,-2.501,-2.5023,-2.5035,-2.5046,-2.5061,-2.5081,-2.5087,-2.5107,-2.5123,-2.515,-2.5161,-2.5177,-2.5175,-2.518,-2.5181,-2.5182,-2.5182,-2.5156,-2.5181,-2.5181,-2.5181,-2.5181,-2.5181,0,-2.4976,-2.4986,-2.5001,-2.502,-2.5033,-2.5035,-2.5051,-2.5062,-2.5079,-2.5093,-2.5108,-2.513,-2.5148,-2.5163,-2.5181,-2.5191,-2.5193,-2.5196,-2.5195,-2.5197,-2.5182,-2.5177,-2.5194,-2.5194,-2.5194,-2.5194,-2.5194,-2.5194,-2.4989,-2.5008,-2.5014,-2.5039,-2.5049,-2.5067,-2.5076,-2.5088,-2.5099,-2.5123,-2.5137,-2.5146,-2.5161,-2.5181,-2.5198,-2.5202,-2.5208,-2.521,-2.5214,-2.52,-2.5198,-2.5197,-2.5192,-2.5211,-2.5211,-2.5227,-2.5227,-2.5227]}]]